Tracking 25710 objects as of 7-Jul-2022
HD Live streaming from Space Station
objects crossing your sky now

FENGYUN 1C DEB

Track FENGYUN 1C DEB now!
10-day predictions


NORAD ID: 32433
Int'l Code: 1999-025DAV
Perigee: 588.2 km
Apogee: 963.0 km
Inclination: 98.2 °
Period: 100.2 minutes
Semi major axis: 7146 km
RCS: 0.0139 m2 (small)
Launch date: May 10, 1999
Source: People's Republic of China (PRC)
Launch site: Taiyaun Space Center, China (TSC)

Note: This is SATELLITE DEBRIS
aabbcc
Your satellite tracking list
Your tracking list is empty




NASA's NSSDC Master Catalog

Two Line Element Set (TLE):
1 32433U 99025DAV 22187.20183909  .00007199  00000-0  16432-2 0  9996
2 32433  98.2202 171.0643 0262215  62.8870 299.8803 14.36989702289985
Source of the keplerian elements: AFSPC